User: anonymous   Login
Location: Oshawa
(43.9000°N, 78.8670°W)
Time: 01:05:41
(UTC-04:00)
Language:

Iridium 98 - Orbit

View from above orbital plane
View from above orbital plane
View from above satellite
View from above satellite

Ground track
Ground track

The orbit data is extracted from the following two-line orbital elements,

1 27451U 02031B   14298.13853131  .00000887  00000-0  30982-3 0  5561
2 27451 086.3966 066.0552 0002321 111.4545 013.0940 14.34214176652836
Epoch (UTC): 25 October 2014 03:19:29
Eccentricity: 0.0002321
inclination: 86.3966°
perigee height: 776 km
apogee height: 779 km
right ascension of ascending node: 66.0552°
argument of perigee: 111.4545°
revolutions per day: 14.34214176
mean anomaly at epoch: 13.0940°
orbit number at epoch: 65283

The dashed part of the orbit path shows where the satellite is in the earth's shadow,  

DLR